Time,TemperatureF,DewpointF,PressureIn,WindDirection,WindDirectionDegrees,WindSpeedMPH,WindSpeedGustMPH,Humidity,HourlyPrecipIn,Conditions,Clouds,dailyrainin,SolarRadiationWatts/m^2,SoftwareType,DateUTC
2013-06-09 00:02:00,63.0,22.0,-100.00,North,349,0.0,0.0,21,0.00,,,0.00,0.000000,,2013-06-09 07:02:00,
2013-06-09 00:11:00,63.0,22.0,-100.00,North,349,0.0,0.0,21,0.00,,,0.00,0.000000,,2013-06-09 07:11:00,
2013-06-09 00:12:00,62.0,24.0,-100.00,ESE,116,0.0,0.0,23,0.00,,,0.00,0.000000,,2013-06-09 07:12:00,
2013-06-09 00:32:00,62.0,24.0,-100.00,ESE,116,0.0,0.0,23,0.00,,,0.00,0.000000,,2013-06-09 07:32:00,
2013-06-09 00:42:00,62.0,24.0,-100.00,ESE,116,0.0,0.0,23,0.00,,,0.00,0.000000,,2013-06-09 07:42:00,
2013-06-09 00:52:00,62.0,24.0,-100.00,ESE,116,0.0,0.0,23,0.00,,,0.00,0.000000,,2013-06-09 07:52:00,
2013-06-09 01:02:00,62.0,24.0,-100.00,ESE,116,0.0,0.0,23,0.00,,,0.00,0.000000,,2013-06-09 08:02:00,
2013-06-09 01:12:00,62.0,24.0,-100.00,WNW,301,0.0,0.0,23,0.00,,,0.00,0.000000,,2013-06-09 08:12:00,
2013-06-09 01:32:00,62.0,24.0,-100.00,WNW,301,0.0,0.0,23,0.00,,,0.00,0.000000,,2013-06-09 08:32:00,
2013-06-09 01:42:00,62.0,24.0,-100.00,WNW,301,0.0,0.0,23,0.00,,,0.00,0.000000,,2013-06-09 08:42:00,
2013-06-09 01:53:00,62.0,24.0,-100.00,WNW,301,0.0,0.0,23,0.00,,,0.00,0.000000,,2013-06-09 08:53:00,
2013-06-09 02:02:00,62.0,24.0,-100.00,WNW,301,0.0,0.0,23,0.00,,,0.00,0.000000,,2013-06-09 09:02:00,
2013-06-09 02:12:00,59.0,24.0,-100.00,NW,307,0.0,0.0,26,0.00,,,0.00,0.000000,,2013-06-09 09:12:00,
2013-06-09 02:33:00,59.0,24.0,-100.00,NW,307,0.0,0.0,26,0.00,,,0.00,0.000000,,2013-06-09 09:33:00,
2013-06-09 02:43:00,59.0,24.0,-100.00,NW,307,0.0,0.0,26,0.00,,,0.00,0.000000,,2013-06-09 09:43:00,
2013-06-09 02:52:00,59.0,24.0,-100.00,NW,307,0.0,0.0,26,0.00,,,0.00,0.000000,,2013-06-09 09:52:00,
2013-06-09 03:03:00,59.0,24.0,-100.00,NW,307,0.0,0.0,26,0.00,,,0.00,0.000000,,2013-06-09 10:03:00,
2013-06-09 03:32:00,58.0,23.0,-100.00,SW,236,0.0,0.0,26,0.00,,,0.00,0.000000,,2013-06-09 10:32:00,
2013-06-09 03:43:00,58.0,23.0,-100.00,SW,236,0.0,0.0,26,0.00,,,0.00,0.000000,,2013-06-09 10:43:00,
2013-06-09 03:52:00,58.0,23.0,-100.00,SW,236,0.0,0.0,26,0.00,,,0.00,0.000000,,2013-06-09 10:52:00,
2013-06-09 04:02:00,58.0,23.0,-100.00,SW,236,0.0,0.0,26,0.00,,,0.00,0.000000,,2013-06-09 11:02:00,
2013-06-09 04:11:00,58.0,23.0,-100.00,SW,236,0.0,0.0,26,0.00,,,0.00,0.000000,,2013-06-09 11:11:00,
2013-06-09 04:32:00,59.0,23.0,-100.00,West,264,0.0,0.0,25,0.00,,,0.00,0.000000,,2013-06-09 11:32:00,
2013-06-09 04:42:00,59.0,23.0,-100.00,West,264,0.0,0.0,25,0.00,,,0.00,0.000000,,2013-06-09 11:42:00,
2013-06-09 04:52:00,59.0,23.0,-100.00,West,264,0.0,0.0,25,0.00,,,0.00,0.000000,,2013-06-09 11:52:00,
2013-06-09 05:02:00,59.0,23.0,-100.00,West,264,0.0,0.0,25,0.00,,,0.00,0.000000,,2013-06-09 12:02:00,
2013-06-09 05:12:00,58.0,24.0,-100.00,WSW,249,0.0,0.0,27,-99.99,,,0.00,1.000000,,2013-06-09 12:12:00,
2013-06-09 05:32:00,58.0,24.0,-100.00,WSW,249,0.0,0.0,27,-99.99,,,0.00,1.000000,,2013-06-09 12:32:00,
2013-06-09 05:42:00,58.0,24.0,-100.00,WSW,249,0.0,0.0,27,-99.99,,,0.00,1.000000,,2013-06-09 12:42:00,
2013-06-09 05:52:00,58.0,24.0,-100.00,WSW,249,0.0,0.0,27,-99.99,,,0.00,1.000000,,2013-06-09 12:52:00,
2013-06-09 06:02:00,58.0,24.0,-100.00,WSW,249,0.0,0.0,27,-99.99,,,0.00,1.000000,,2013-06-09 13:02:00,
2013-06-09 06:32:00,61.0,29.0,-100.00,SW,223,0.0,0.0,30,0.00,,,0.00,108.000000,,2013-06-09 13:32:00,
2013-06-09 06:42:00,61.0,29.0,-100.00,SW,223,0.0,0.0,30,0.00,,,0.00,108.000000,,2013-06-09 13:42:00,
2013-06-09 06:52:00,61.0,29.0,-100.00,SW,223,0.0,0.0,30,0.00,,,0.00,108.000000,,2013-06-09 13:52:00,
2013-06-09 07:02:00,61.0,29.0,-100.00,SW,223,0.0,0.0,30,0.00,,,0.00,108.000000,,2013-06-09 14:02:00,
2013-06-09 07:11:00,61.0,29.0,-100.00,SW,223,0.0,0.0,30,0.00,,,0.00,108.000000,,2013-06-09 14:11:00,
2013-06-09 07:32:00,69.0,26.0,-100.00,East,91,0.0,0.0,20,-99.99,,,0.00,329.000000,,2013-06-09 14:32:00,
2013-06-09 07:43:00,69.0,26.0,-100.00,East,91,0.0,0.0,20,-99.99,,,0.00,329.000000,,2013-06-09 14:43:00,
2013-06-09 07:52:00,69.0,26.0,-100.00,East,91,0.0,0.0,20,-99.99,,,0.00,329.000000,,2013-06-09 14:52:00,
2013-06-09 08:02:00,69.0,26.0,-100.00,East,91,0.0,0.0,20,-99.99,,,0.00,329.000000,,2013-06-09 15:02:00,
2013-06-09 08:12:00,71.0,27.0,-100.00,ENE,63,0.0,0.0,19,-99.99,,,0.00,532.000000,,2013-06-09 15:12:00,
2013-06-09 08:33:00,71.0,27.0,-100.00,ENE,63,0.0,0.0,19,-99.99,,,0.00,532.000000,,2013-06-09 15:33:00,
2013-06-09 08:43:00,71.0,27.0,-100.00,ENE,63,0.0,0.0,19,-99.99,,,0.00,532.000000,,2013-06-09 15:43:00,
2013-06-09 08:53:00,71.0,27.0,-100.00,ENE,63,0.0,0.0,19,-99.99,,,0.00,532.000000,,2013-06-09 15:53:00,
2013-06-09 09:03:00,71.0,27.0,-100.00,ENE,63,0.0,0.0,19,-99.99,,,0.00,532.000000,,2013-06-09 16:03:00,
2013-06-09 09:12:00,74.0,29.0,-100.00,ESE,111,0.0,0.0,19,0.00,,,0.00,715.000000,,2013-06-09 16:12:00,
2013-06-09 09:33:00,74.0,29.0,-100.00,ESE,111,0.0,0.0,19,0.00,,,0.00,715.000000,,2013-06-09 16:33:00,
2013-06-09 09:42:00,74.0,29.0,-100.00,ESE,111,0.0,0.0,19,0.00,,,0.00,715.000000,,2013-06-09 16:42:00,
2013-06-09 09:53:00,74.0,29.0,-100.00,ESE,111,0.0,0.0,19,0.00,,,0.00,715.000000,,2013-06-09 16:53:00,
2013-06-09 10:02:00,74.0,29.0,-100.00,ESE,111,0.0,0.0,19,0.00,,,0.00,715.000000,,2013-06-09 17:02:00,
2013-06-09 10:32:00,76.0,29.0,-100.00,SE,126,0.0,0.0,18,0.00,,,0.00,865.000000,,2013-06-09 17:32:00,
2013-06-09 10:42:00,76.0,29.0,-100.00,SE,126,0.0,0.0,18,0.00,,,0.00,865.000000,,2013-06-09 17:42:00,
2013-06-09 10:52:00,76.0,29.0,-100.00,SE,126,0.0,0.0,18,0.00,,,0.00,865.000000,,2013-06-09 17:52:00,
2013-06-09 11:02:00,76.0,29.0,-100.00,SE,126,0.0,0.0,18,0.00,,,0.00,865.000000,,2013-06-09 18:02:00,
2013-06-09 11:11:00,76.0,29.0,-100.00,SE,126,0.0,0.0,18,0.00,,,0.00,865.000000,,2013-06-09 18:11:00,
2013-06-09 11:33:00,77.0,29.0,-100.00,SW,235,0.0,0.0,17,0.00,,,0.00,966.000000,,2013-06-09 18:33:00,
2013-06-09 11:42:00,77.0,29.0,-100.00,SW,235,0.0,0.0,17,0.00,,,0.00,966.000000,,2013-06-09 18:42:00,
2013-06-09 11:52:00,77.0,29.0,-100.00,SW,235,0.0,0.0,17,0.00,,,0.00,966.000000,,2013-06-09 18:52:00,
2013-06-09 12:02:00,77.0,29.0,-100.00,SW,235,0.0,0.0,17,0.00,,,0.00,966.000000,,2013-06-09 19:02:00,
2013-06-09 12:12:00,80.0,30.0,-100.00,SSW,197,0.0,0.0,16,0.00,,,0.00,1010.000000,,2013-06-09 19:12:00,
2013-06-09 12:32:00,80.0,30.0,-100.00,SSW,197,0.0,0.0,16,0.00,,,0.00,1010.000000,,2013-06-09 19:32:00,
2013-06-09 12:43:00,80.0,30.0,-100.00,SSW,197,0.0,0.0,16,0.00,,,0.00,1010.000000,,2013-06-09 19:43:00,
2013-06-09 12:52:00,80.0,30.0,-100.00,SSW,197,0.0,0.0,16,0.00,,,0.00,1010.000000,,2013-06-09 19:52:00,
2013-06-09 13:02:00,80.0,30.0,-100.00,SSW,197,0.0,0.0,16,0.00,,,0.00,1010.000000,,2013-06-09 20:02:00,
2013-06-09 13:12:00,79.0,27.0,-100.00,SW,224,0.0,0.0,15,0.00,,,0.00,971.000000,,2013-06-09 20:12:00,
2013-06-09 13:32:00,79.0,27.0,-100.00,SW,224,0.0,0.0,15,0.00,,,0.00,971.000000,,2013-06-09 20:32:00,
2013-06-09 13:42:00,79.0,27.0,-100.00,SW,224,0.0,0.0,15,0.00,,,0.00,971.000000,,2013-06-09 20:42:00,
2013-06-09 13:52:00,79.0,27.0,-100.00,SW,224,0.0,0.0,15,0.00,,,0.00,971.000000,,2013-06-09 20:52:00,
2013-06-09 14:02:00,79.0,27.0,-100.00,SW,224,0.0,0.0,15,0.00,,,0.00,971.000000,,2013-06-09 21:02:00,
2013-06-09 14:12:00,80.0,27.0,-100.00,SSW,201,0.0,0.0,14,0.00,,,0.00,672.000000,,2013-06-09 21:12:00,
2013-06-09 14:33:00,80.0,27.0,-100.00,SSW,201,0.0,0.0,14,0.00,,,0.00,672.000000,,2013-06-09 21:33:00,
2013-06-09 14:43:00,80.0,27.0,-100.00,SSW,201,0.0,0.0,14,0.00,,,0.00,672.000000,,2013-06-09 21:43:00,
2013-06-09 14:53:00,80.0,27.0,-100.00,SSW,201,0.0,0.0,14,0.00,,,0.00,672.000000,,2013-06-09 21:53:00,
2013-06-09 15:02:00,80.0,27.0,-100.00,SSW,201,0.0,0.0,14,0.00,,,0.00,672.000000,,2013-06-09 22:02:00,
2013-06-09 15:12:00,81.0,27.0,-100.00,South,178,0.0,0.0,14,0.00,,,0.00,605.000000,,2013-06-09 22:12:00,
2013-06-09 15:33:00,81.0,27.0,-100.00,South,178,0.0,0.0,14,0.00,,,0.00,605.000000,,2013-06-09 22:33:00,
2013-06-09 15:42:00,81.0,27.0,-100.00,South,178,0.0,0.0,14,0.00,,,0.00,605.000000,,2013-06-09 22:42:00,
2013-06-09 15:52:00,81.0,27.0,-100.00,South,178,0.0,0.0,14,0.00,,,0.00,605.000000,,2013-06-09 22:52:00,
2013-06-09 16:02:00,81.0,27.0,-100.00,South,178,0.0,0.0,14,0.00,,,0.00,605.000000,,2013-06-09 23:02:00,
2013-06-09 16:32:00,78.0,25.0,-100.00,SW,224,0.0,0.0,14,0.00,,,0.00,518.000000,,2013-06-09 23:32:00,
2013-06-09 16:43:00,78.0,25.0,-100.00,SW,224,0.0,0.0,14,0.00,,,0.00,518.000000,,2013-06-09 23:43:00,
2013-06-09 16:52:00,78.0,25.0,-100.00,SW,224,0.0,0.0,14,0.00,,,0.00,518.000000,,2013-06-09 23:52:00,
2013-06-09 17:02:00,78.0,25.0,-100.00,SW,224,0.0,0.0,14,0.00,,,0.00,518.000000,,2013-06-10 00:02:00,
2013-06-09 17:11:00,78.0,25.0,-100.00,SW,224,0.0,0.0,14,0.00,,,0.00,518.000000,,2013-06-10 00:11:00,
2013-06-09 17:12:00,77.0,24.0,-100.00,SSE,161,0.0,0.0,14,0.00,,,0.00,361.000000,,2013-06-10 00:12:00,
2013-06-09 17:32:00,77.0,24.0,-100.00,SSE,161,0.0,0.0,14,0.00,,,0.00,361.000000,,2013-06-10 00:32:00,
2013-06-09 17:42:00,77.0,24.0,-100.00,SSE,161,0.0,0.0,14,0.00,,,0.00,361.000000,,2013-06-10 00:42:00,
2013-06-09 17:52:00,77.0,24.0,-100.00,SSE,161,0.0,0.0,14,0.00,,,0.00,361.000000,,2013-06-10 00:52:00,
2013-06-09 18:02:00,77.0,24.0,-100.00,SSE,161,0.0,0.0,14,0.00,,,0.00,361.000000,,2013-06-10 01:02:00,
2013-06-09 18:12:00,73.0,24.0,-100.00,WSW,251,0.0,0.0,16,0.00,,,0.00,132.000000,,2013-06-10 01:12:00,
2013-06-09 18:32:00,73.0,24.0,-100.00,WSW,251,0.0,0.0,16,0.00,,,0.00,132.000000,,2013-06-10 01:32:00,
2013-06-09 18:43:00,73.0,24.0,-100.00,WSW,251,0.0,0.0,16,0.00,,,0.00,132.000000,,2013-06-10 01:43:00,
2013-06-09 18:52:00,73.0,24.0,-100.00,WSW,251,0.0,0.0,16,0.00,,,0.00,132.000000,,2013-06-10 01:52:00,
2013-06-09 19:02:00,73.0,24.0,-100.00,WSW,251,0.0,0.0,16,0.00,,,0.00,132.000000,,2013-06-10 02:02:00,
2013-06-09 19:12:00,71.0,27.0,-100.00,WNW,283,0.0,0.0,19,0.00,,,0.00,66.000000,,2013-06-10 02:12:00,
2013-06-09 19:32:00,71.0,27.0,-100.00,WNW,283,0.0,0.0,19,0.00,,,0.00,66.000000,,2013-06-10 02:32:00,
2013-06-09 19:42:00,71.0,27.0,-100.00,WNW,283,0.0,0.0,19,0.00,,,0.00,66.000000,,2013-06-10 02:42:00,
2013-06-09 19:52:00,71.0,27.0,-100.00,WNW,283,0.0,0.0,19,0.00,,,0.00,66.000000,,2013-06-10 02:52:00,
2013-06-09 20:02:00,71.0,27.0,-100.00,WNW,283,0.0,0.0,19,0.00,,,0.00,66.000000,,2013-06-10 03:02:00,
2013-06-09 20:12:00,68.0,28.0,-100.00,WNW,297,0.0,0.0,22,0.00,,,0.00,20.000000,,2013-06-10 03:12:00,
2013-06-09 20:33:00,68.0,28.0,-100.00,WNW,297,0.0,0.0,22,0.00,,,0.00,20.000000,,2013-06-10 03:33:00,
2013-06-09 20:43:00,68.0,28.0,-100.00,WNW,297,0.0,0.0,22,0.00,,,0.00,20.000000,,2013-06-10 03:43:00,
2013-06-09 20:53:00,68.0,28.0,-100.00,WNW,297,0.0,0.0,22,0.00,,,0.00,20.000000,,2013-06-10 03:53:00,
2013-06-09 21:03:00,68.0,28.0,-100.00,WNW,297,0.0,0.0,22,0.00,,,0.00,20.000000,,2013-06-10 04:03:00,
2013-06-09 21:12:00,64.0,29.0,-100.00,WNW,289,0.0,0.0,27,0.00,,,0.00,0.000000,,2013-06-10 04:12:00,
2013-06-09 21:33:00,64.0,29.0,-100.00,WNW,289,0.0,0.0,27,0.00,,,0.00,0.000000,,2013-06-10 04:33:00,
2013-06-09 21:42:00,64.0,29.0,-100.00,WNW,289,0.0,0.0,27,0.00,,,0.00,0.000000,,2013-06-10 04:42:00,
2013-06-09 21:52:00,64.0,29.0,-100.00,WNW,289,0.0,0.0,27,0.00,,,0.00,0.000000,,2013-06-10 04:52:00,
2013-06-09 22:02:00,64.0,29.0,-100.00,WNW,289,0.0,0.0,27,0.00,,,0.00,0.000000,,2013-06-10 05:02:00,
2013-06-09 22:12:00,62.0,29.0,-100.00,WSW,241,0.0,0.0,29,0.00,,,0.00,0.000000,,2013-06-10 05:12:00,
2013-06-09 22:32:00,62.0,29.0,-100.00,WSW,241,0.0,0.0,29,0.00,,,0.00,0.000000,,2013-06-10 05:32:00,
2013-06-09 22:42:00,62.0,29.0,-100.00,WSW,241,0.0,0.0,29,0.00,,,0.00,0.000000,,2013-06-10 05:42:00,
2013-06-09 22:52:00,62.0,29.0,-100.00,WSW,241,0.0,0.0,29,0.00,,,0.00,0.000000,,2013-06-10 05:52:00,
2013-06-09 23:02:00,62.0,29.0,-100.00,WSW,241,0.0,0.0,29,0.00,,,0.00,0.000000,,2013-06-10 06:02:00,
2013-06-09 23:12:00,60.0,31.0,-100.00,SW,221,0.0,0.0,33,0.00,,,0.00,0.000000,,2013-06-10 06:12:00,
2013-06-09 23:32:00,60.0,31.0,-100.00,SW,221,0.0,0.0,33,0.00,,,0.00,0.000000,,2013-06-10 06:32:00,
2013-06-09 23:42:00,60.0,31.0,-100.00,SW,221,0.0,0.0,33,0.00,,,0.00,0.000000,,2013-06-10 06:42:00,
2013-06-09 23:52:00,60.0,31.0,-100.00,SW,221,0.0,0.0,33,0.00,,,0.00,0.000000,,2013-06-10 06:52:00,